Flag for West Bank Weather past 2 weeks in Tulkarm, West Bank

Now
82 °F

Passing clouds.


Feels Like: 88 °F
Forecast: 72 / 91 °F
Wind: 2 mph from North

Location: Dov Airport

Current Time: Aug 28, 2014 at 12:43:05 AM

Latest Report: Aug 27, 2014 at 10:50 PM


Visibility: N/A

Pressure: 29.71 "Hg

Humidity: 74%

Dew point: 73 °F

Location of TulkarmLocation

Historic Weather in Tulkarm — Graph

°F

Tulkarm temperature yesterday

Maximum temperature yesterday: 86 °F (at 9:50 AM)
Minimum temperature yesterday: 77 °F (at 5:50 AM)
Average temperature yesterday: 84 °F

Past Weeks' High & Low Weather Summary

 TemperatureHumidityPressure
High90 °F (Aug 18, 11:50 AM)89% (Aug 14, 4:50 AM)29.92 "Hg (Aug 14, 4:50 AM)
Low77 °F (Aug 17, 4:50 AM)55% (Aug 21, 8:50 AM)29.59 "Hg (Aug 17, 3:50 PM)
Average84 °F71%29.75 "Hg
* Reported Aug 12 10:50 PM — Aug 27 10:50 PM, Tulkarm, Weather by CustomWeather, © 2014

Note: Actual official high and low records may vary slightly from our data, if they occured in-between our weather recording intervals... More about our weather records

Advertising

Tulkarm weather history for previous 24 hours

 ConditionsComfort  
Time TempWeatherWind HumidityBarometerVisibility
10:50 PM
Aug 27
82 °FPassing clouds.2 mph74%29.71 "HgN/A
9:50 PM82 °FPassing clouds.2 mph74%29.71 "HgN/A
8:50 PM82 °FPassing clouds.2 mph74%29.71 "HgN/A
7:50 PM82 °FPassing clouds.3 mph74%29.71 "HgN/A
6:50 PM84 °FPassing clouds.7 mph70%29.71 "HgN/A
5:50 PM86 °FSunny.8 mph66%29.71 "Hg10 mi
4:50 PM86 °FPassing clouds.9 mph66%29.71 "HgN/A
3:50 PM86 °FPassing clouds.9 mph66%29.71 "HgN/A
2:50 PM86 °FSunny.12 mph66%29.74 "Hg10 mi
1:50 PM86 °FSunny.10 mph62%29.74 "Hg10 mi
12:50 PM86 °FPassing clouds.12 mph66%29.74 "HgN/A
11:50 AM86 °FPassing clouds.10 mph66%29.77 "HgN/A
10:50 AM86 °FPassing clouds.8 mph66%29.77 "HgN/A
9:50 AM86 °FScattered clouds.No wind66%29.77 "HgN/A
8:50 AM84 °FPassing clouds.2 mph70%29.77 "HgN/A
7:50 AM79 °FScattered clouds.7 mph79%29.77 "HgN/A
6:50 AM77 °FPassing clouds.6 mph83%29.77 "HgN/A
5:50 AM77 °FPassing clouds.1 mph83%29.74 "HgN/A
Weather by CustomWeather, © 2014

See weather overviewHow to use our weather pages